(279920) = 2001 RZ78

Discovered at Socorro on 2001-09-10 by LINEAR.

Orbit

Orbit type: Phocaea

Note: WebGL enabled browser required.

epoch2023-09-13.0
epoch JD2460200.5
perihelion date2020-01-31.94089
perihelion JD2458880.44089
argument of perihelion (°)193.72329
ascending node (°)192.09115
inclination (°)13.24262
eccentricity0.1636763
perihelion distance (AU)1.9863648
Tisserand w.r.t. Jupiter3.5
ΔV w.r.t. Earth (km/sec)9.7
semimajor axis (AU)2.3751149
mean anomaly (°)355.44326
mean daily motion (°/day)0.26926310
aphelion distance (AU)2.764
period (years)3.66
P-vector [x]0.90153046
P-vector [y]0.41548235
P-vector [z]0.12090179
Q-vector [x]-0.43004696
Q-vector [y]0.89127051
Q-vector [z]0.14386275
absolute magnitude17.05
phase slope0.15
uncertainty0
referenceMPEC 2024-A165
observations used548
oppositions13
arc length (days)8161
first opposition used2001
last opposition used2024
residual rms (arc-secs)0.71
perturbers coarse indicatorM-v
perturbers precise indicator003Ek
first observation date used2001-09-10.0
last observation date used2024-01-14.0
computer nameMPCLINUX
JD of orbit computation2456760.635555
perihelion JD uncertainty (days)7.1954E-05
argument of perihelion uncertainty (°)3.2262E-05
ascending node uncertainty (°)2.2504E-05
inclination uncertainty (°)1.2011E-05
eccentricity uncertainty 1.2539E-07
perihelion distance uncertainty (AU)2.9705E-07
Minimum Orbit Intersection Distances (in AU)
for orbit epoch: 2460200.5, reference: E2024-AG5
Mercury1.64919
Venus1.26165
Earth0.99076
Mars0.56443
Jupiter2.68691
Saturn6.7849
Uranus15.7577
Neptune27.8527

Observations

559 total observations over interval: 2001 09 10.41761 – 2024 01 14.150531
These data are available for download (format description).

Date (UT) J2000 RA J2000 Dec Magn Location Ref
2001 09 10.41761 02 09 50.84 +12 49 43.5 20.4   704 – Lincoln Laboratory ETS, New Mexico MPS 36328
2001 09 10.43113 02 09 51.04 +12 49 36.4 20.1   704 – Lincoln Laboratory ETS, New Mexico MPS 36328
2001 09 10.44465 02 09 51.13 +12 49 29.6 19.9   704 – Lincoln Laboratory ETS, New Mexico MPS 36328
2001 09 17.35867 02 10 42.09 +11 45 04.8 19.4   704 – Lincoln Laboratory ETS, New Mexico MPS 36328
2001 09 17.37275 02 10 42.02 +11 44 56.9 19.4   704 – Lincoln Laboratory ETS, New Mexico MPS 36328
2001 09 17.38659 02 10 41.99 +11 44 48.2 19.3   704 – Lincoln Laboratory ETS, New Mexico MPS 36328
2001 09 19.39262 02 10 38.88 +11 23 30.1 19.5   704 – Lincoln Laboratory ETS, New Mexico MPS 36328
2001 09 19.40687 02 10 38.79 +11 23 20.5 19.7   704 – Lincoln Laboratory ETS, New Mexico MPS 36328
2001 09 19.42112 02 10 38.72 +11 23 11.0 19.6   704 – Lincoln Laboratory ETS, New Mexico MPS 36328
2001 09 19.43542 02 10 38.61 +11 23 01.9 19.4   704 – Lincoln Laboratory ETS, New Mexico MPS 36328
2001 09 19.44970 02 10 38.52 +11 22 52.5 19.5   704 – Lincoln Laboratory ETS, New Mexico MPS 36328
2001 09 21.38975 02 10 27.95 +11 01 11.0 19.1   704 – Lincoln Laboratory ETS, New Mexico MPS 36328
2001 09 21.40177 02 10 27.87 +11 01 02.9 18.7   704 – Lincoln Laboratory ETS, New Mexico MPS 36328
2001 09 21.41600 02 10 27.71 +11 00 52.6 19.3   704 – Lincoln Laboratory ETS, New Mexico MPS 36328
2001 09 21.41943 02 10 27.63 +11 00 50.7 19.7   704 – Lincoln Laboratory ETS, New Mexico MPS 36328
2001 09 21.42522 02 10 27.56 +11 00 46.6 20.3   704 – Lincoln Laboratory ETS, New Mexico MPS 36328
2001 09 21.43025 02 10 27.57 +11 00 43.8 19.1   704 – Lincoln Laboratory ETS, New Mexico MPS 36328
2001 09 21.43389 02 10 27.52 +11 00 40.0 19.9   704 – Lincoln Laboratory ETS, New Mexico MPS 36328
2001 09 21.43948 02 10 27.63 +11 00 34.5 20.4   704 – Lincoln Laboratory ETS, New Mexico MPS 36328
2001 09 21.44450 02 10 27.45 +11 00 33.6 19.5   704 – Lincoln Laboratory ETS, New Mexico MPS 36328
2001 09 21.44826 02 10 27.36 +11 00 31.2 19.7   704 – Lincoln Laboratory ETS, New Mexico MPS 36328
2001 09 21.45373 02 10 27.41 +11 00 25.2 20.4   704 – Lincoln Laboratory ETS, New Mexico MPS 36328
2001 09 21.45876 02 10 27.30 +11 00 23.5 19.2   704 – Lincoln Laboratory ETS, New Mexico MPS 36328
2001 09 21.46799 02 10 27.30 +11 00 18.4 20.0   704 – Lincoln Laboratory ETS, New Mexico MPS 36328
2001 09 25.33302 02 09 44.37 +10 14 03.0 19.0   704 – Lincoln Laboratory ETS, New Mexico MPS 49426
2001 09 25.33468 02 09 44.32 +10 14 00.4 18.7   704 – Lincoln Laboratory ETS, New Mexico MPS 49426
2001 09 25.36301 02 09 43.84 +10 13 40.0 18.7   704 – Lincoln Laboratory ETS, New Mexico MPS 49426
2001 09 25.36551 02 09 43.77 +10 13 38.4 18.9   704 – Lincoln Laboratory ETS, New Mexico MPS 49426
2001 09 25.37798 02 09 43.56 +10 13 28.8 19.0   704 – Lincoln Laboratory ETS, New Mexico MPS 49426
2001 09 25.38023 02 09 43.60 +10 13 26.7 19.2   704 – Lincoln Laboratory ETS, New Mexico MPS 49426
2001 09 25.39296 02 09 43.32 +10 13 17.9 19.0   704 – Lincoln Laboratory ETS, New Mexico MPS 49426
2001 09 25.39578 02 09 43.28 +10 13 14.8 19.0   704 – Lincoln Laboratory ETS, New Mexico MPS 49426
2001 09 26.33717 02 09 28.64 +10 01 24.5 19.4   704 – Lincoln Laboratory ETS, New Mexico MPS 49426
2001 09 26.35186 02 09 28.42 +10 01 14.1 19.6   704 – Lincoln Laboratory ETS, New Mexico MPS 49426
2001 09 26.36644 02 09 28.08 +10 01 01.3 19.7   704 – Lincoln Laboratory ETS, New Mexico MPS 49426
2001 09 26.38102 02 09 27.73 +10 00 50.6 19.5   704 – Lincoln Laboratory ETS, New Mexico MPS 49426
2001 09 26.39562 02 09 27.45 +10 00 40.5 19.4   704 – Lincoln Laboratory ETS, New Mexico MPS 49426
2001 09 27.32323 02 09 11.46 +09 48 46.0 19.0   704 – Lincoln Laboratory ETS, New Mexico MPS 36328
2001 09 27.33839 02 09 11.11 +09 48 35.8 19.2   704 – Lincoln Laboratory ETS, New Mexico MPS 36328
2001 09 27.35353 02 09 10.83 +09 48 24.0 19.1   704 – Lincoln Laboratory ETS, New Mexico MPS 36328
2001 09 27.36877 02 09 10.49 +09 48 12.4 19.1   704 – Lincoln Laboratory ETS, New Mexico MPS 36328
2001 09 27.38391 02 09 10.18 +09 48 01.5 19.2   704 – Lincoln Laboratory ETS, New Mexico MPS 36328
2001 10 16.25357 01 59 05.15 +05 16 33.8 18.6   704 – Lincoln Laboratory ETS, New Mexico MPS 38016
2001 10 16.26930 01 59 04.49 +05 16 20.5 18.9   704 – Lincoln Laboratory ETS, New Mexico MPS 38016
2001 10 16.28502 01 59 03.74 +05 16 06.3 18.8   704 – Lincoln Laboratory ETS, New Mexico MPS 38016
2001 10 16.30075 01 59 03.04 +05 15 51.5 18.8   704 – Lincoln Laboratory ETS, New Mexico MPS 38016
2001 10 16.31649 01 59 02.29 +05 15 37.8 18.8   704 – Lincoln Laboratory ETS, New Mexico MPS 38016
2001 10 16.40391 01 58 58.43 +05 14 19.1 19.3   644 – Palomar Mountain/NEAT MPS 39330
2001 10 16.42498 01 58 57.49 +05 13 59.9 19.3   644 – Palomar Mountain/NEAT MPS 39330
2001 10 16.44623 01 58 56.53 +05 13 40.7 18.9   644 – Palomar Mountain/NEAT MPS 39330
2001 10 24.26129 01 53 18.09 +03 18 40.7 18.9   704 – Lincoln Laboratory ETS, New Mexico MPS 40405
2001 10 24.27788 01 53 17.35 +03 18 26.5 18.9   704 – Lincoln Laboratory ETS, New Mexico MPS 40405
2001 10 24.29435 01 53 16.54 +03 18 12.2 19.0   704 – Lincoln Laboratory ETS, New Mexico MPS 40405
2001 10 24.31100 01 53 15.79 +03 17 58.6 18.7   704 – Lincoln Laboratory ETS, New Mexico MPS 40405
2001 10 24.35600 01 53 13.77 +03 17 19.0 19.1   644 – Palomar Mountain/NEAT MPS 40405
2001 10 24.37706 01 53 12.79 +03 17 01.1 18.9   644 – Palomar Mountain/NEAT MPS 40405
2001 10 24.39813 01 53 11.82 +03 16 43.2 18.7   644 – Palomar Mountain/NEAT MPS 40405
2002 01 13.100870 02 07 50.704 +00 16 40.30 21.22 V 645 – Apache Point-Sloan Digital Sky Survey MPS 79901
2002 01 13.104342 02 07 50.935 +00 16 41.66 21.85   645 – Apache Point-Sloan Digital Sky Survey MPS 79901
2008 08 07.23361 21 27 23.47 +05 16 49.4 19.4 R G89 – Kachina Observatory, Flagstaff MPS 253975
2008 08 07.25789 21 27 22.26 +05 16 39.8 19.4 R G89 – Kachina Observatory, Flagstaff MPS 253975
2008 08 07.28215 21 27 21.04 +05 16 30.3 19.4 R G89 – Kachina Observatory, Flagstaff MPS 253975
2008 08 12.33683 21 23 14.41 +04 39 05.0 19.6 R G89 – Kachina Observatory, Flagstaff MPS 253975
2008 08 12.35351 21 23 13.54 +04 38 56.8 19.6 R G89 – Kachina Observatory, Flagstaff MPS 253975
2008 08 12.36565 21 23 12.91 +04 38 50.8 19.6 R G89 – Kachina Observatory, Flagstaff MPS 253975
2008 09 22.16889 21 01 21.38 -03 03 05.2 19.5   704 – Lincoln Laboratory ETS, New Mexico MPS 256537
2008 09 22.18093 21 01 21.38 -03 03 13.8 20.6   704 – Lincoln Laboratory ETS, New Mexico MPS 256537
2008 09 22.19295 21 01 21.28 -03 03 22.0 20.6   704 – Lincoln Laboratory ETS, New Mexico MPS 256537
2008 09 22.20498 21 01 21.21 -03 03 29.4 20.1   704 – Lincoln Laboratory ETS, New Mexico MPS 256537
2008 09 22.21701 21 01 21.26 -03 03 37.7 20.6   704 – Lincoln Laboratory ETS, New Mexico MPS 256537
2010 05 04.690837 09 17 54.12 +07 46 00.1   C51 – WISE MPS 341636
2010 05 04.823141 09 18 00.890 +07 46 16.54   C51 – WISE MPS 903897
2010 05 04.955446 09 18 07.55 +07 46 29.1   C51 – WISE MPS 341636
2010 05 05.087749 09 18 14.29 +07 46 42.6   C51 – WISE MPS 341636
2010 05 05.286270 09 18 24.415 +07 47 01.82   C51 – WISE MPS 903897
2010 05 05.352358 09 18 27.76 +07 47 08.3   C51 – WISE MPS 341636
2010 05 05.41857 09 18 31.25 +07 47 13.1   C51 – WISE MPS 341636
2010 05 05.550877 09 18 38.04 +07 47 28.7   C51 – WISE MPS 341636
2010 05 05.683182 09 18 44.94 +07 47 40.0   C51 – WISE MPS 341636
2010 05 05.815486 09 18 51.68 +07 47 54.8   C51 – WISE MPS 341636
2010 05 05.947791 09 18 58.69 +07 48 05.8   C51 – WISE MPS 341636
2011 05 21.34131 15 51 36.57 -04 32 16.2 20.7 V G96 – Mt. Lemmon Survey MPS 383279
2011 05 21.34880 15 51 36.18 -04 32 13.3 20.7 V G96 – Mt. Lemmon Survey MPS 383279
2011 05 21.35629 15 51 35.74 -04 32 10.8 20.2 V G96 – Mt. Lemmon Survey MPS 383279
2011 05 21.36377 15 51 35.35 -04 32 08.2 20.3 V G96 – Mt. Lemmon Survey MPS 383279
2011 05 22.37110 15 50 38.94 -04 25 51.5 20.6 V G96 – Mt. Lemmon Survey MPS 383279
2011 05 22.37807 15 50 38.54 -04 25 48.9 21.0 V G96 – Mt. Lemmon Survey MPS 383279
2011 05 22.38495 15 50 38.14 -04 25 46.2 21.1 V G96 – Mt. Lemmon Survey MPS 383279
